Location: Songkhla
(7.2000°N, 100.6000°E)
Time: 01:08:08
(UTC+07:00)

ISS - Pass Details

Date: 22 March 2019
Orbit: 411 x 421 km, 51.6° (Epoch: 19 October)

Event Time Altitude Azimuth Distance (km) Brightness Sun altitude
Exits shadow 04:37:24 19° 130° (SE) 1,070 -1.3 -26.6°
Drops below altitude 10° 04:38:29 10° 134° (SE) 1,492 -0.5 -26.3°
Sets 04:40:36 0° 138° (SE) 2,361 0.6 -25.8°
